Location: Beaver Brook Trail
(44.0290°N, 71.8137°W)
Time: 03:28:31
(UTC+00:00)

SR - Pass Details

Date: 14 November 2024
Orbit: 573 x 858 km, 66.7° (Epoch: 03 December)

Event Time Altitude Azimuth Distance (km) Brightness Sun altitude
Exits shadow 09:29:21 - 353° (N) 2,630 ? -23.8°
Reaches altitude 10° 09:31:59 10° 18° (NNE) 2,262 ? -23.3°
Maximum altitude 09:33:07 11° 31° (NNE) 2,237 ? -23.1°
Drops below altitude 10° 09:34:16 10° 44° (NE) 2,302 ? -22.9°
Sets 09:39:07 0° 82° (E) 3,308 ? -22.0°
